Zurück zum Katalog

TAIJING-3 05B

AktivWissenschaftSSO
NORAD 69101·PAYLOAD·🇨🇳 China
Dieser Satellitenname wurde noch nicht durch offizielle Quellen bestätigt.

Gestartet May 15, 2026 von Jiuquan Satellite Launch Center

Loading…

Nächste Überflüge (nächste 24 Stunden)

TLE

AktuellSource: Space-Track

Epoche: Sep 14, 2026, 22:42 UTC

1 69101U 26106E   26257.94634164  .00006438  00000-0  37303-3 0  9991
2 69101  97.5024 338.4810 0015498 216.8454 143.1713 15.12440978 18549

Verfolge TAIJING-3 05B in Echtzeit mit AllMySat

Download on the App Store